KR4HBQ-13 Weather Reports


time (UTC)temp
F
wind
direction
speed
knots
gust
knots
rain 1hr
in
rain 24hr
in
rain mn
in
humidity
%
barometer
mb
20260906140015 0 64 0.9 0.9 0.00 0.00 0.00 82 1002.6
20260906135515 0 32 1.7 1.7 0.00 0.00 0.00 82 1002.5
20260906135014 0 83 0.0 0.9 0.00 0.00 0.00 82 1002.3
20260906134515 0 62 0.0 0.0 0.00 0.00 0.00 84 1002.1
20260906134014 0 82 0.0 0.0 0.00 0.00 0.00 84 1002.1
20260906133514 0 84 0.9 0.9 0.00 0.00 0.00 86 1002.0
20260906133014 0 148 0.0 0.0 0.00 0.00 0.00 86 1002.0
20260906132513 0 209 0.0 0.0 0.00 0.00 0.00 86 1002.3
20260906132013 0 212 0.0 0.0 0.00 0.00 0.00 86 1002.1
20260906131513 0 34 1.7 1.7 0.00 0.00 0.00 86 1002.1
20260906131013 0 142 0.0 0.0 0.00 0.00 0.00 88 1001.9
20260906130512 0 59 0.9 0.9 0.00 0.00 0.00 88 1001.7
20260906130012 0 30 0.0 0.0 0.00 0.00 0.00 90 1002.0
20260906125512 0 122 0.0 0.0 0.00 0.00 0.00 91 1001.9
20260906125012 0 43 0.0 0.9 0.00 0.00 0.00 92 1002.0
20260906124511 0 84 0.0 0.0 0.00 0.00 0.00 93 1002.1
20260906124011 0 50 0.9 1.7 0.00 0.00 0.00 92 1001.9
20260906123511 0 98 0.0 0.0 0.00 0.00 0.00 93 1002.1
20260906123011 0 98 0.0 0.0 0.00 0.00 0.00 93 1002.0
20260906122510 0 58 1.7 1.7 0.00 0.00 0.00 93 1002.0
20260906122010 0 165 0.0 0.0 0.00 0.00 0.00 94 1001.8
20260906121510 0 76 0.0 0.0 0.00 0.00 0.00 94 1002.0
20260906121010 0 118 0.0 0.9 0.00 0.00 0.00 94 1001.8
20260906120509 0 97 0.0 0.0 0.00 0.00 0.00 95 1001.9
20260906120009 0 197 0.0 0.0 0.00 0.00 0.00 95 1001.9
20260906115509 0 218 0.0 0.0 0.00 0.00 0.00 95 1002.0
20260906115009 0 327 0.0 0.0 0.00 0.00 0.00 95 1002.1
20260906114508 0 202 0.0 0.0 0.00 0.00 0.00 96 1001.8
20260906114008 0 201 0.0 0.0 0.00 0.00 0.00 96 1001.7
20260906113508 0 199 0.0 0.0 0.00 0.00 0.00 96 1001.6
20260906113008 0 111 0.0 0.0 0.00 0.00 0.00 96 1001.6
20260906112508 0 111 0.0 0.0 0.00 0.00 0.00 96 1001.7
20260906112007 0 210 0.0 0.0 0.00 0.00 0.00 96 1001.7
20260906111507 0 146 0.0 0.0 0.00 0.00 0.00 96 1001.7
20260906111007 0 148 0.0 0.0 0.00 0.00 0.00 96 1001.3
20260906110507 0 280 0.0 0.0 0.00 0.00 0.00 96 1001.4
20260906110006 0 118 0.0 0.9 0.00 0.00 0.00 96 1001.5
20260906105506 0 222 0.0 0.0 0.00 0.00 0.00 96 1001.2
20260906105006 0 107 0.0 0.0 0.00 0.00 0.00 96 1001.3
20260906104506 0 107 0.0 0.0 0.00 0.00 0.00 96 1001.3
20260906104005 0 107 0.0 0.0 0.00 0.00 0.00 96 1001.3
20260906103505 0 107 0.0 0.0 0.00 0.00 0.00 96 1001.1
20260906103005 0 107 0.0 0.0 0.00 0.00 0.00 96 1001.0
20260906102505 0 107 0.0 0.0 0.00 0.00 0.00 96 1000.9
20260906102005 0 34 0.0 0.9 0.00 0.00 0.00 96 1001.0
20260906101504 0 117 0.0 0.0 0.00 0.00 0.00 96 1001.0
20260906101004 0 70 0.9 0.9 0.00 0.00 0.00 97 1001.0
20260906100504 0 93 0.0 0.0 0.00 0.00 0.00 97 1000.8
20260906100004 0 96 0.0 0.0 0.00 0.00 0.00 97 1000.7
20260906095503 0 96 0.0 0.0 0.00 0.00 0.00 97 1000.6
20260906095003 0 96 0.0 0.9 0.00 0.00 0.00 97 1000.5
20260906094503 0 100 0.0 0.0 0.00 0.00 0.00 97 1000.6
20260906094002 0 101 0.0 0.0 0.00 0.00 0.00 97 1000.3
20260906093502 0 100 0.0 0.0 0.00 0.00 0.00 97 1000.4
20260906093002 0 111 0.0 0.0 0.00 0.00 0.00 97 1000.2
20260906092502 0 111 0.0 0.0 0.00 0.00 0.00 98 1000.3
20260906092001 0 168 0.0 0.0 0.00 0.00 0.00 98 1000.2
20260906091501 0 164 0.0 0.0 0.00 0.00 0.00 98 1000.0
20260906090446 0 94 0.0 0.0 0.00 0.00 0.00 98 1000.0
20260906085946 0 86 0.0 0.0 0.00 0.00 0.00 98 1000.0
20260906085445 0 85 0.0 0.0 0.00 0.00 0.00 98 999.8
20260906084945 0 92 0.0 0.0 0.00 0.00 0.00 99 999.8
20260906084445 0 97 0.0 0.0 0.00 0.00 0.00 99 999.7
20260906083945 0 98 0.0 0.0 0.00 0.00 0.00 99 999.9
20260906083444 0 104 0.0 0.0 0.00 0.00 0.00 99 999.7
20260906082944 0 104 0.0 0.0 0.00 0.00 0.00 99 999.8
20260906082444 0 104 0.0 0.0 0.00 0.00 0.00 99 999.9
20260906081944 0 104 0.0 0.0 0.00 0.00 0.00 99 999.8
20260906081444 0 104 0.0 0.0 0.00 0.00 0.00 99 999.9
20260906080943 0 104 0.0 0.0 0.00 0.00 0.00 99 999.9
20260906080443 0 104 0.0 0.0 0.00 0.00 0.00 99 999.7
20260906075943 0 104 0.0 0.0 0.00 0.00 0.00 99 999.5
20260906075443 0 104 0.0 0.0 0.00 0.00 0.00 99 999.4
20260906074943 0 104 0.0 0.0 0.00 0.00 0.00 99 999.6
20260906074442 0 104 0.0 0.0 0.00 0.00 0.00 99 999.5
20260906073942 0 104 0.0 0.0 0.00 0.00 0.00 99 999.4
20260906073442 0 104 0.0 0.0 0.00 0.00 0.00 99 999.4
20260906072942 0 104 0.0 0.0 0.00 0.00 0.00 99 999.6
20260906072441 0 104 0.0 0.0 0.00 0.00 0.00 99 999.4
20260906071941 0 104 0.0 0.0 0.00 0.00 0.00 99 999.1
20260906071441 0 104 0.0 0.0 0.00 0.00 0.00 99 999.2
20260906070941 0 104 0.0 0.0 0.00 0.00 0.00 99 999.6
20260906070441 0 104 0.0 0.0 0.00 0.00 0.00 99 999.3
20260906065940 0 104 0.0 0.0 0.00 0.00 0.00 99 999.3
20260906065440 0 104 0.0 0.0 0.00 0.00 0.00 99 999.5
20260906064940 0 104 0.0 0.0 0.00 0.00 0.00 99 999.7
20260906064440 0 104 0.0 0.0 0.00 0.00 0.00 99 999.6
20260906063939 0 104 0.0 0.0 0.00 0.00 0.00 98 999.6
20260906063439 0 104 0.0 0.0 0.00 0.00 0.00 99 999.5
20260906062939 0 104 0.0 0.0 0.00 0.00 0.00 98 999.4
20260906062439 0 104 0.0 0.0 0.00 0.00 0.00 98 999.7
20260906061938 0 103 0.0 0.0 0.00 0.00 0.00 98 999.6
20260906061438 0 104 0.0 0.0 0.00 0.00 0.00 98 999.7
20260906060938 0 104 0.0 0.0 0.00 0.00 0.00 98 999.6
20260906060438 0 104 0.0 0.0 0.00 0.00 0.00 98 999.7
20260906055938 0 103 0.0 0.0 0.00 0.00 0.00 98 999.6
20260906055437 0 104 0.0 0.0 0.00 0.00 0.00 98 999.7
20260906054937 0 104 0.0 0.0 0.00 0.00 0.00 98 999.7
20260906054437 0 104 0.0 0.0 0.00 0.00 0.00 98 999.6
20260906053937 0 104 0.0 0.0 0.00 0.00 0.00 98 1000.1
20260906053437 0 104 0.0 0.0 0.00 0.00 0.00 98 1000.0
20260906052936 0 103 0.0 0.0 0.00 0.00 0.00 98 1000.1
20260906052436 0 103 0.0 0.0 0.00 0.00 0.00 98 1000.2
20260906051936 0 103 0.0 0.0 0.00 0.00 0.00 98 1000.3
20260906051435 0 103 0.0 0.0 0.00 0.00 0.00 98 1000.2
20260906050935 0 103 0.0 0.0 0.00 0.00 0.00 98 1000.4
20260906050435 0 103 0.0 0.0 0.00 0.00 0.00 98 1000.4
20260906045934 0 103 0.0 0.0 0.00 0.00 0.00 98 1000.2
20260906045434 0 103 0.0 0.0 0.00 0.00 0.00 98 1000.3
20260906044934 0 103 0.0 0.0 0.00 0.00 0.00 98 1000.3
20260906044434 0 103 0.0 0.0 0.00 0.00 0.00 98 1000.3
20260906043933 0 103 0.0 0.0 0.00 0.00 0.00 98 1000.6
20260906043433 0 103 0.0 0.0 0.00 0.00 0.00 98 1000.7
20260906042933 0 103 0.0 0.0 0.00 0.00 0.00 98 1000.3
20260906042433 0 103 0.0 0.0 0.00 0.00 0.00 98 1000.6
20260906041932 0 103 0.0 0.0 0.00 0.00 0.00 98 1000.5
20260906041432 0 103 0.0 0.0 0.00 0.00 0.00 98 1000.5
20260906040432 0 103 0.0 0.0 0.00 0.00 0.00 98 1000.6
20260906035931 0 103 0.0 0.0 0.00 0.12 0.12 98 1000.6
20260906035431 0 103 0.0 0.0 0.00 0.12 0.12 98 1000.6
20260906034931 0 103 0.0 0.0 0.00 0.12 0.12 98 1000.5
20260906034431 0 103 0.0 0.0 0.00 0.12 0.12 97 1000.5
20260906033931 0 103 0.0 0.0 0.00 0.12 0.12 97 1000.6
20260906033430 0 103 0.0 0.0 0.00 0.12 0.12 97 1000.5
20260906032930 0 103 0.0 0.0 0.00 0.12 0.12 97 1000.6
20260906032430 0 103 0.0 0.0 0.00 0.12 0.12 97 1000.6
20260906031929 0 103 0.0 0.0 0.00 0.12 0.12 97 1000.7
20260906031429 0 103 0.0 0.0 0.00 0.12 0.12 97 1000.6
20260906030929 0 103 0.0 0.0 0.00 0.12 0.12 97 1000.6
20260906030429 0 103 0.0 0.0 0.00 0.12 0.12 97 1000.5
20260906025929 0 103 0.0 0.0 0.00 0.12 0.12 98 1000.5
20260906025428 0 103 0.0 0.0 0.00 0.12 0.12 98 1000.5
20260906024928 0 103 0.0 0.0 0.00 0.12 0.12 97 1000.4
20260906024428 0 103 0.0 0.0 0.00 0.12 0.12 97 1000.4
20260906023928 0 105 0.0 0.0 0.00 0.12 0.12 98 1000.6
20260906023427 0 95 0.0 0.9 0.00 0.12 0.12 98 1000.7
20260906022927 0 112 0.0 0.0 0.00 0.12 0.12 98 1000.4
20260906022427 0 114 0.0 0.0 0.00 0.12 0.12 98 1000.3
20260906021927 0 114 0.0 0.0 0.00 0.12 0.12 98 1000.5
20260906021427 0 113 0.0 0.0 0.00 0.12 0.12 98 1000.3
20260906020926 0 133 0.0 0.0 0.00 0.12 0.12 98 1000.2
20260906020426 0 133 0.0 0.0 0.00 0.12 0.12 98 1000.2
20260906015926 0 133 0.0 0.0 0.00 0.12 0.12 98 1000.4
20260906015426 0 133 0.0 0.0 0.00 0.12 0.12 98 1000.2
20260906014926 0 133 0.0 0.0 0.00 0.12 0.12 98 1000.5
20260906014425 0 133 0.0 0.0 0.00 0.12 0.12 98 1000.3
20260906013925 0 133 0.0 0.0 0.00 0.12 0.12 98 1000.2
20260906013425 0 133 0.0 0.0 0.00 0.12 0.12 98 1000.3
20260906012925 0 133 0.0 0.0 0.00 0.12 0.12 98 1000.4
20260906012424 0 133 0.0 0.0 0.00 0.12 0.12 98 1000.4
20260906011924 0 133 0.0 0.0 0.00 0.12 0.12 98 1000.2
20260906011424 0 133 0.0 0.0 0.00 0.12 0.12 98 1000.0
20260906010924 0 133 0.0 0.0 0.00 0.12 0.12 98 1000.1
20260906010423 0 133 0.0 0.0 0.00 0.12 0.12 98 1000.1
20260906005923 0 133 0.0 0.0 0.00 0.12 0.12 98 1000.2
20260906005423 0 133 0.0 0.0 0.00 0.12 0.12 98 1000.0
20260906004923 0 133 0.0 0.0 0.00 0.12 0.12 98 999.8
20260906004423 0 133 0.0 0.0 0.00 0.12 0.12 97 1000.0
20260906003922 0 133 0.0 0.0 0.00 0.12 0.12 97 999.7
20260906003422 0 133 0.0 0.0 0.00 0.12 0.12 97 999.8
20260906002922 0 133 0.0 0.0 0.00 0.12 0.12 97 999.9
20260906002422 0 133 0.0 0.0 0.00 0.12 0.12 97 999.8
20260906001921 0 133 0.0 0.0 0.00 0.12 0.12 97 999.6
20260906001421 0 133 0.0 0.0 0.00 0.12 0.12 97 999.5
20260906000921 0 133 0.0 0.0 0.00 0.12 0.12 97 999.5
20260906000421 0 133 0.0 0.0 0.00 0.12 0.12 97 999.4
20260905235921 0 133 0.0 0.0 0.00 0.12 0.12 97 999.4
20260905235420 0 133 0.0 0.0 0.00 0.12 0.12 97 999.4
20260905234920 0 133 0.0 0.0 0.00 0.12 0.12 97 999.2
20260905234420 0 133 0.0 0.0 0.00 0.12 0.12 97 999.2
20260905233920 0 133 0.0 0.0 0.00 0.12 0.12 97 999.2
20260905233419 0 133 0.0 0.0 0.00 0.12 0.12 97 999.1
20260905232919 0 133 0.0 0.0 0.00 0.12 0.12 96 999.0
20260905232419 0 133 0.0 0.0 0.00 0.12 0.12 96 999.0
20260905231919 0 133 0.0 0.0 0.00 0.12 0.12 96 998.7
20260905231418 0 129 0.0 0.0 0.00 0.12 0.12 96 998.9
20260905230918 0 129 0.0 0.0 0.00 0.12 0.12 96 998.7
20260905230418 0 129 0.0 0.0 0.00 0.12 0.12 96 998.6
20260905225918 0 129 0.0 0.0 0.00 0.12 0.12 96 998.5
20260905225417 0 129 0.0 0.0 0.00 0.12 0.12 95 998.3
20260905224917 0 128 0.0 0.0 0.00 0.12 0.12 96 998.5
20260905224417 0 128 0.0 0.0 0.00 0.12 0.12 96 998.5
20260905223917 0 129 0.0 0.0 0.00 0.12 0.12 96 998.4
20260905223417 0 129 0.0 0.0 0.00 0.12 0.12 96 998.4
20260905222916 0 128 0.0 0.0 0.00 0.12 0.12 97 998.6
20260905222416 0 123 0.0 0.0 0.00 0.12 0.12 97 998.9
20260905221916 0 134 0.0 0.0 0.00 0.12 0.12 97 998.8
20260905221416 0 134 0.0 0.0 0.00 0.12 0.12 97 998.7
20260905220915 0 134 0.0 0.0 0.00 0.12 0.12 97 998.8
20260905220415 0 134 0.0 0.0 0.00 0.12 0.12 97 999.1
20260905215915 0 134 0.0 0.0 0.00 0.12 0.12 97 999.0
20260905215415 0 134 0.0 0.0 0.00 0.12 0.12 97 999.0
20260905214915 0 134 0.0 0.0 0.00 0.12 0.12 97 999.0
20260905214414 0 133 0.0 0.0 0.00 0.12 0.12 97 998.8
20260905213914 0 133 0.0 0.0 0.00 0.12 0.12 97 998.6
20260905213414 0 133 0.0 0.0 0.00 0.12 0.12 97 998.4
20260905212914 0 133 0.0 0.0 0.00 0.12 0.12 97 998.4
20260905212413 0 133 0.0 0.0 0.00 0.12 0.12 97 998.4
20260905211913 0 133 0.0 0.0 0.00 0.12 0.12 97 998.4
20260905211413 0 133 0.0 0.0 0.00 0.12 0.12 97 998.2
20260905210913 0 133 0.0 0.0 0.00 0.12 0.12 97 998.4
20260905210413 0 133 0.0 0.0 0.00 0.12 0.12 97 998.3
20260905205912 0 133 0.0 0.0 0.00 0.12 0.12 97 998.3
20260905205412 0 133 0.0 0.0 0.00 0.12 0.12 97 998.2
20260905204912 0 133 0.0 0.0 0.00 0.12 0.12 97 998.4
20260905204412 0 133 0.0 0.0 0.00 0.12 0.12 96 998.2
20260905203911 0 133 0.0 0.0 0.00 0.12 0.12 96 998.0
20260905203411 0 133 0.0 0.0 0.00 0.12 0.12 96 998.1
20260905202911 0 133 0.0 0.0 0.00 0.12 0.12 97 998.2
20260905202411 0 133 0.0 0.0 0.00 0.12 0.12 96 998.0
20260905201910 0 133 0.0 0.0 0.00 0.12 0.12 96 998.3
20260905201410 0 133 0.0 0.0 0.07 0.12 0.12 96 998.2
20260905200910 0 134 0.0 0.0 0.07 0.12 0.12 96 998.3
20260905200410 0 118 0.0 0.0 0.07 0.11 0.11 95 998.8
20260905195909 0 167 0.0 0.0 0.31 0.11 0.11 94 998.8
20260905195409 0 37 0.0 0.9 0.54 0.11 0.11 93 999.4
20260905194909 0 158 0.0 0.0 0.42 0.07 0.07 88 999.6
20260905194409 0 140 0.0 0.0 0.07 0.01 0.01 75 999.8
20260905193909 0 256 0.9 1.7 0.00 0.00 0.00 69 1000.0
20260905193408 0 148 1.7 1.7 0.00 0.00 0.00 69 999.5
20260905192908 0 124 0.0 0.0 0.00 0.00 0.00 69 999.4
20260905192408 0 159 0.0 0.0 0.00 0.00 0.00 69 999.2
20260905191908 0 216 0.0 0.9 0.00 0.00 0.00 69 999.1
20260905191407 0 118 1.7 2.6 0.00 0.00 0.00 67 998.8
20260905190907 0 32 1.7 2.6 0.00 0.00 0.00 63 999.1
20260905190407 0 176 0.9 1.7 0.00 0.00 0.00 56 998.9
20260905185907 0 201 0.0 0.0 0.00 0.00 0.00 53 998.2
20260905185406 0 123 0.0 0.0 0.00 0.00 0.00 54 998.2
20260905184906 0 149 0.0 0.0 0.00 0.00 0.00 53 997.8
20260905184406 0 151 0.0 0.0 0.00 0.00 0.00 50 997.7
20260905183905 0 188 0.0 0.0 0.00 0.00 0.00 48 997.9
20260905183405 0 185 0.0 0.9 0.00 0.00 0.00 49 998.0
20260905182905 0 99 0.0 0.0 0.00 0.00 0.00 47 998.1
20260905182405 0 165 0.0 0.0 0.00 0.00 0.00 49 997.9
20260905181904 0 156 0.0 0.0 0.00 0.00 0.00 49 997.9
20260905181404 0 93 0.0 0.9 0.00 0.00 0.00 49 998.2
20260905180904 0 182 0.0 0.9 0.00 0.00 0.00 50 998.5
20260905180404 0 205 0.0 0.9 0.00 0.00 0.00 50 998.5
20260905175904 0 149 0.0 0.0 0.00 0.00 0.00 50 998.5
20260905174903 0 249 0.9 0.9 0.00 0.00 0.00 49 998.8
20260905173903 0 95 0.9 0.9 0.00 0.00 0.00 52 999.1
20260905173402 0 215 0.0 0.0 0.00 0.00 0.00 50 999.2
20260905172902 0 137 0.0 0.0 0.00 0.00 0.00 52 999.6
20260905172402 0 147 0.0 0.0 0.00 0.00 0.00 52 999.7
20260905171902 0 174 0.0 0.0 0.00 0.00 0.00 53 999.6
20260905171401 0 146 0.9 1.7 0.00 0.00 0.00 52 999.4
20260905170901 0 334 0.9 1.7 0.00 0.00 0.00 53 999.6
20260905170401 0 98 1.7 1.7 0.00 0.00 0.00 54 999.9
20260905165901 0 43 0.9 0.9 0.00 0.00 0.00 53 999.8
20260905165400 0 288 1.7 1.7 0.00 0.00 0.00 52 999.7
20260905164900 0 4 0.9 0.9 0.00 0.00 0.00 54 1000.1
20260905164400 0 13 0.9 0.9 0.00 0.00 0.00 54 1000.1
20260905163345 0 329 1.7 2.6 0.00 0.00 0.00 53 1000.2
20260905162844 0 19 0.0 0.9 0.00 0.00 0.00 53 1000.3
20260905162344 0 13 1.7 2.6 0.00 0.00 0.00 55 1000.4
20260905161844 0 10 0.9 1.7 0.00 0.00 0.00 54 1000.2
20260905161344 0 137 0.0 0.0 0.00 0.00 0.00 58 1000.4
20260905160843 0 191 0.0 0.0 0.00 0.00 0.00 57 1000.5
20260905160343 0 191 0.0 0.0 0.00 0.00 0.00 58 1000.6
20260905155843 0 121 0.0 0.0 0.00 0.00 0.00 59 1000.6
20260905155343 0 213 0.0 0.9 0.00 0.00 0.00 57 1000.7
20260905154842 0 182 0.0 0.0 0.00 0.00 0.00 59 1000.8
20260905154342 0 136 0.0 0.0 0.00 0.00 0.00 60 1000.9
20260905153842 0 351 3.5 3.5 0.00 0.00 0.00 58 1000.9
20260905153342 0 310 0.9 1.7 0.00 0.00 0.00 58 1001.0
20260905152842 0 40 2.6 5.2 0.00 0.00 0.00 58 1001.1
20260905152341 0 31 0.9 0.9 0.00 0.00 0.00 61 1001.2
20260905151841 0 100 0.0 0.9 0.00 0.00 0.00 63 1001.3
20260905151341 0 30 0.0 0.9 0.00 0.00 0.00 62 1001.3
20260905150840 0 183 0.0 0.9 0.00 0.00 0.00 63 1001.2
20260905150340 0 192 0.0 0.0 0.00 0.00 0.00 64 1001.2
20260905145840 0 175 0.0 0.0 0.00 0.00 0.00 65 1001.1
20260905145340 0 112 0.0 0.0 0.00 0.00 0.00 65 1001.1
20260905144840 0 321 0.0 0.0 0.00 0.00 0.00 65 1001.4
20260905144339 0 157 0.0 0.0 0.00 0.00 0.00 69 1001.2
20260905143839 0 192 0.0 0.0 0.00 0.00 0.00 69 1001.2
20260905143339 0 193 0.0 0.0 0.00 0.00 0.00 71 1001.3
20260905142839 0 198 0.0 0.0 0.00 0.00 0.00 71 1001.0
20260905142338 0 202 0.0 0.9 0.00 0.00 0.00 71 1001.0
20260905141838 0 189 0.0 0.0 0.00 0.00 0.00 72 1001.0
20260905141338 0 206 0.0 0.0 0.00 0.00 0.00 74 1000.9
20260905140838 0 145 0.0 0.0 0.00 0.00 0.00 74 1001.1
20260905140338 0 122 0.0 0.0 0.00 0.00 0.00 75 1000.9